Time,TemperatureF,DewpointF,PressureIn,WindDirection,WindDirectionDegrees,WindSpeedMPH,WindSpeedGustMPH,Humidity,HourlyPrecipIn,Conditions,Clouds,dailyrainin,SoftwareType,DateUTC
2013-07-20 00:12:00,88.5,74.0,29.72,SSE,163,4.0,6.0,63,0.00,,,0.00,weatherlink.com 1.10,2013-07-20 04:12:00,
2013-07-20 00:27:00,87.9,74.0,29.72,SSE,147,4.0,7.0,64,0.00,,,0.00,weatherlink.com 1.10,2013-07-20 04:27:00,
2013-07-20 00:42:00,87.8,75.0,29.72,SSE,147,3.0,10.0,65,0.00,,,0.00,weatherlink.com 1.10,2013-07-20 04:42:00,
2013-07-20 00:57:00,87.5,74.0,29.73,SE,143,5.0,11.0,65,0.00,,,0.00,weatherlink.com 1.10,2013-07-20 04:57:00,
2013-07-20 01:12:00,87.0,75.0,29.73,SE,132,2.0,10.0,67,0.00,,,0.00,weatherlink.com 1.10,2013-07-20 05:12:00,
2013-07-20 01:27:00,86.8,75.0,29.73,SE,143,5.0,10.0,67,0.00,,,0.00,weatherlink.com 1.10,2013-07-20 05:27:00,
2013-07-20 01:42:00,86.7,75.0,29.72,SSE,167,4.0,7.0,68,0.00,,,0.00,weatherlink.com 1.10,2013-07-20 05:42:00,
2013-07-20 01:57:00,86.7,75.0,29.72,SE,127,1.0,11.0,69,0.00,,,0.00,weatherlink.com 1.10,2013-07-20 05:57:00,
2013-07-20 02:12:00,86.6,75.0,29.72,ESE,118,1.0,7.0,69,0.00,,,0.00,weatherlink.com 1.10,2013-07-20 06:12:00,
2013-07-20 02:27:00,86.4,76.0,29.72,ESE,109,1.0,7.0,70,0.00,,,0.00,weatherlink.com 1.10,2013-07-20 06:27:00,
2013-07-20 02:42:00,86.0,74.0,29.71,SSE,157,3.0,8.0,68,0.00,,,0.00,weatherlink.com 1.10,2013-07-20 06:42:00,
2013-07-20 02:57:00,85.9,73.0,29.71,SSE,158,2.0,6.0,65,0.00,,,0.00,weatherlink.com 1.10,2013-07-20 06:57:00,
2013-07-20 03:12:00,85.7,72.0,29.70,SSE,158,2.0,10.0,64,0.00,,,0.00,weatherlink.com 1.10,2013-07-20 07:12:00,
2013-07-20 03:27:00,85.5,71.0,29.70,ENE,65,2.0,6.0,63,0.00,,,0.00,weatherlink.com 1.10,2013-07-20 07:27:00,
2013-07-20 03:42:00,85.4,71.0,29.70,SE,129,2.0,5.0,63,0.00,,,0.00,weatherlink.com 1.10,2013-07-20 07:42:00,
2013-07-20 03:57:00,84.3,71.0,29.70,SSE,165,3.0,9.0,65,0.00,,,0.00,weatherlink.com 1.10,2013-07-20 07:57:00,
2013-07-20 04:12:00,83.6,71.0,29.69,South,187,5.0,9.0,65,0.00,,,0.00,weatherlink.com 1.10,2013-07-20 08:12:00,
2013-07-20 04:27:00,83.2,70.0,29.69,SE,127,3.0,8.0,64,0.00,,,0.00,weatherlink.com 1.10,2013-07-20 08:27:00,
2013-07-20 04:42:00,82.8,70.0,29.69,SE,142,2.0,11.0,65,0.00,,,0.00,weatherlink.com 1.10,2013-07-20 08:42:00,
2013-07-20 04:57:00,82.8,70.0,29.69,South,183,3.0,8.0,65,0.00,,,0.00,weatherlink.com 1.10,2013-07-20 08:57:00,
2013-07-20 05:12:00,82.5,70.0,29.68,South,190,7.0,10.0,65,0.00,,,0.00,weatherlink.com 1.10,2013-07-20 09:12:00,
2013-07-20 05:27:00,82.1,70.0,29.68,South,173,3.0,8.0,66,0.00,,,0.00,weatherlink.com 1.10,2013-07-20 09:27:00,
2013-07-20 05:42:00,81.9,70.0,29.70,South,172,4.0,10.0,67,0.00,,,0.00,weatherlink.com 1.10,2013-07-20 09:42:00,
2013-07-20 05:57:00,84.5,71.0,29.70,SSE,150,3.0,10.0,65,0.00,,,0.00,weatherlink.com 1.10,2013-07-20 09:57:00,
2013-07-20 06:12:00,89.6,70.0,29.71,South,177,6.0,10.0,53,0.00,,,0.00,weatherlink.com 1.10,2013-07-20 10:12:00,
2013-07-20 06:27:00,90.4,70.0,29.71,SSE,156,4.0,8.0,52,0.00,,,0.00,weatherlink.com 1.10,2013-07-20 10:27:00,
2013-07-20 06:43:00,92.4,70.0,29.71,SSE,166,4.0,9.0,48,0.00,,,0.00,weatherlink.com 1.10,2013-07-20 10:43:00,
2013-07-20 06:58:00,90.9,70.0,29.71,SSW,207,4.0,10.0,51,0.00,,,0.00,weatherlink.com 1.10,2013-07-20 10:58:00,
2013-07-20 07:13:00,91.0,70.0,29.71,SSE,158,5.0,7.0,50,0.00,,,0.00,weatherlink.com 1.10,2013-07-20 11:13:00,
2013-07-20 07:28:00,91.6,70.0,29.72,SW,214,4.0,6.0,49,0.00,,,0.00,weatherlink.com 1.10,2013-07-20 11:28:00,
2013-07-20 07:43:00,92.0,70.0,29.72,SSE,149,2.0,10.0,49,0.00,,,0.00,weatherlink.com 1.10,2013-07-20 11:43:00,
2013-07-20 07:58:00,92.0,70.0,29.73,SSE,148,4.0,8.0,49,0.00,,,0.00,weatherlink.com 1.10,2013-07-20 11:58:00,
2013-07-20 08:13:00,92.5,70.0,29.73,SSE,150,5.0,9.0,48,0.00,,,0.00,weatherlink.com 1.10,2013-07-20 12:13:00,
2013-07-20 08:28:00,92.7,70.0,29.73,SSW,193,3.0,7.0,48,0.00,,,0.00,weatherlink.com 1.10,2013-07-20 12:28:00,
2013-07-20 08:43:00,89.0,70.0,29.72,SSE,152,5.0,9.0,53,0.00,,,0.00,weatherlink.com 1.10,2013-07-20 12:43:00,
2013-07-20 08:58:00,93.3,70.0,29.71,SW,236,2.0,8.0,47,0.00,,,0.00,weatherlink.com 1.10,2013-07-20 12:58:00,
2013-07-20 09:13:00,92.5,69.0,29.71,SSE,163,5.0,8.0,47,0.00,,,0.00,weatherlink.com 1.10,2013-07-20 13:13:00,
2013-07-20 09:28:00,94.4,71.0,29.71,SSE,150,4.0,6.0,46,0.00,,,0.00,weatherlink.com 1.10,2013-07-20 13:28:00,
2013-07-20 09:43:00,95.4,70.0,29.72,SSE,155,2.0,9.0,44,0.00,,,0.00,weatherlink.com 1.10,2013-07-20 13:43:00,
2013-07-20 09:58:00,91.8,70.0,29.71,NNW,330,2.0,7.0,49,0.00,,,0.00,weatherlink.com 1.10,2013-07-20 13:58:00,
2013-07-20 10:13:00,95.3,70.0,29.71,South,169,4.0,9.0,44,0.00,,,0.00,weatherlink.com 1.10,2013-07-20 14:13:00,
2013-07-20 10:28:00,90.7,70.0,29.71,SSE,157,2.0,7.0,51,0.00,,,0.00,weatherlink.com 1.10,2013-07-20 14:28:00,
2013-07-20 10:43:00,94.9,70.0,29.71,SE,134,4.0,10.0,45,0.00,,,0.00,weatherlink.com 1.10,2013-07-20 14:43:00,
2013-07-20 10:58:00,93.2,70.0,29.71,ESE,110,2.0,8.0,47,0.00,,,0.00,weatherlink.com 1.10,2013-07-20 14:58:00,
2013-07-20 11:13:00,96.6,71.0,29.70,SE,140,5.0,8.0,44,0.00,,,0.00,weatherlink.com 1.10,2013-07-20 15:13:00,
2013-07-20 11:29:00,96.4,71.0,29.70,SE,145,4.0,10.0,44,0.00,,,0.00,weatherlink.com 1.10,2013-07-20 15:29:00,
2013-07-20 11:43:00,95.5,72.0,29.69,SSE,158,6.0,12.0,46,0.00,,,0.00,weatherlink.com 1.10,2013-07-20 15:43:00,
2013-07-20 11:58:00,98.2,71.0,29.68,SSE,149,4.0,9.0,42,0.00,,,0.00,weatherlink.com 1.10,2013-07-20 15:58:00,
2013-07-20 12:13:00,94.6,71.0,29.68,SSE,158,4.0,13.0,46,0.00,,,0.00,weatherlink.com 1.10,2013-07-20 16:13:00,
2013-07-20 12:28:00,98.8,71.0,29.68,SSE,158,3.0,10.0,41,0.00,,,0.00,weatherlink.com 1.10,2013-07-20 16:28:00,
2013-07-20 12:44:00,95.5,71.0,29.67,SSE,159,7.0,12.0,45,0.00,,,0.00,weatherlink.com 1.10,2013-07-20 16:44:00,
2013-07-20 12:58:00,100.5,71.0,29.67,SE,145,7.0,9.0,39,0.00,,,0.00,weatherlink.com 1.10,2013-07-20 16:58:00,
2013-07-20 13:13:00,98.9,72.0,29.66,SE,127,4.0,10.0,42,0.00,,,0.00,weatherlink.com 1.10,2013-07-20 17:13:00,
2013-07-20 13:28:00,99.6,72.0,29.65,SE,145,5.0,11.0,41,0.00,,,0.00,weatherlink.com 1.10,2013-07-20 17:28:00,
2013-07-20 13:43:00,100.6,71.0,29.66,SW,221,3.0,9.0,39,0.00,,,0.00,weatherlink.com 1.10,2013-07-20 17:43:00,
2013-07-20 13:58:00,97.6,72.0,29.66,SSE,162,4.0,14.0,43,0.00,,,0.00,weatherlink.com 1.10,2013-07-20 17:58:00,
2013-07-20 14:13:00,98.5,71.0,29.66,SSW,194,5.0,12.0,41,0.00,,,0.00,weatherlink.com 1.10,2013-07-20 18:13:00,
2013-07-20 14:28:00,95.5,70.0,29.66,SE,144,3.0,9.0,44,0.00,,,0.00,weatherlink.com 1.10,2013-07-20 18:28:00,
2013-07-20 14:43:00,99.9,71.0,29.66,NW,311,4.0,7.0,39,0.00,,,0.00,weatherlink.com 1.10,2013-07-20 18:43:00,
2013-07-20 14:58:00,97.4,71.0,29.65,SSE,149,4.0,10.0,42,0.00,,,0.00,weatherlink.com 1.10,2013-07-20 18:58:00,
2013-07-20 15:43:00,97.4,69.0,29.64,NNW,327,4.0,9.0,40,0.00,,,0.00,weatherlink.com 1.10,2013-07-20 19:43:00,
2013-07-20 15:59:00,98.0,69.0,29.64,SE,132,4.0,10.0,39,0.00,,,0.00,weatherlink.com 1.10,2013-07-20 19:59:00,
2013-07-20 16:14:00,100.0,70.0,29.64,SSE,148,3.0,9.0,38,0.00,,,0.00,weatherlink.com 1.10,2013-07-20 20:14:00,
2013-07-20 16:29:00,99.6,69.0,29.64,SW,217,4.0,12.0,37,0.00,,,0.00,weatherlink.com 1.10,2013-07-20 20:29:00,
2013-07-20 16:44:00,100.0,70.0,29.64,SSE,150,3.0,13.0,38,0.00,,,0.00,weatherlink.com 1.10,2013-07-20 20:44:00,
2013-07-20 18:14:00,97.1,69.0,29.64,SE,141,3.0,9.0,40,0.00,,,0.00,weatherlink.com 1.10,2013-07-20 22:14:00,
2013-07-20 18:29:00,97.0,67.0,29.66,SE,144,2.0,7.0,38,0.00,,,0.00,weatherlink.com 1.10,2013-07-20 22:29:00,
2013-07-20 18:44:00,91.5,75.0,29.66,SSE,152,2.0,7.0,58,0.06,,,0.06,weatherlink.com 1.10,2013-07-20 22:44:00,
2013-07-20 18:59:00,91.1,72.0,29.68,SE,137,2.0,7.0,53,0.06,,,0.06,weatherlink.com 1.10,2013-07-20 22:59:00,
2013-07-20 19:14:00,91.1,72.0,29.67,SE,135,4.0,8.0,53,0.06,,,0.06,weatherlink.com 1.10,2013-07-20 23:14:00,
2013-07-20 19:29:00,88.5,70.0,29.68,SSE,158,2.0,5.0,55,0.06,,,0.06,weatherlink.com 1.10,2013-07-20 23:29:00,
2013-07-20 19:59:00,87.8,70.0,29.71,SSE,147,4.0,7.0,56,0.00,,,0.06,weatherlink.com 1.10,2013-07-20 23:59:00,
2013-07-20 20:14:00,93.2,71.0,29.70,SSE,165,3.0,5.0,48,0.00,,,0.06,weatherlink.com 1.10,2013-07-21 00:14:00,
2013-07-20 20:29:00,84.6,71.0,29.71,SSE,151,4.0,7.0,63,0.00,,,0.06,weatherlink.com 1.10,2013-07-21 00:29:00,
2013-07-20 20:44:00,83.0,71.0,29.71,SSE,155,1.0,4.0,68,0.00,,,0.06,weatherlink.com 1.10,2013-07-21 00:44:00,
2013-07-20 20:59:00,82.4,72.0,29.71,SSE,147,0.0,5.0,70,0.00,,,0.06,weatherlink.com 1.10,2013-07-21 00:59:00,
2013-07-20 21:29:00,83.1,70.0,29.73,South,171,5.0,8.0,65,0.00,,,0.06,weatherlink.com 1.10,2013-07-21 01:29:00,
2013-07-20 21:44:00,80.9,72.0,29.73,SSE,158,2.0,10.0,73,0.03,,,0.09,weatherlink.com 1.10,2013-07-21 01:44:00,
2013-07-20 21:59:00,79.5,72.0,29.72,South,190,1.0,4.0,78,0.03,,,0.09,weatherlink.com 1.10,2013-07-21 01:59:00,
2013-07-20 22:14:00,79.9,72.0,29.73,South,179,2.0,4.0,77,0.03,,,0.09,weatherlink.com 1.10,2013-07-21 02:14:00,
2013-07-20 22:29:00,80.1,72.0,29.73,South,174,2.0,4.0,76,0.03,,,0.09,weatherlink.com 1.10,2013-07-21 02:29:00,
2013-07-20 22:44:00,80.5,72.0,29.73,SSE,154,1.0,4.0,75,0.00,,,0.09,weatherlink.com 1.10,2013-07-21 02:44:00,
2013-07-20 22:59:00,80.7,72.0,29.73,SSE,167,2.0,4.0,75,0.00,,,0.09,weatherlink.com 1.10,2013-07-21 02:59:00,
2013-07-20 23:14:00,80.8,71.0,29.74,SSE,148,1.0,3.0,73,0.00,,,0.09,weatherlink.com 1.10,2013-07-21 03:14:00,
2013-07-20 23:29:00,81.4,72.0,29.75,SSE,148,0.0,1.0,72,0.00,,,0.09,weatherlink.com 1.10,2013-07-21 03:29:00,
2013-07-20 23:44:00,81.7,71.0,29.74,SSE,148,0.0,1.0,69,0.00,,,0.09,weatherlink.com 1.10,2013-07-21 03:44:00,
2013-07-20 23:59:00,82.6,70.0,29.74,SE,138,0.0,1.0,66,0.00,,,0.09,weatherlink.com 1.10,2013-07-21 03:59:00,